TimeCDT,TemperatureF,Dew PointF,Humidity,Sea Level PressureIn,VisibilityMPH,Wind Direction,Wind SpeedMPH,Gust SpeedMPH,PrecipitationIn,Events,Conditions,WindDirDegrees,DateUTC
12:53 AM,46.9,37.0,68,29.77,10.0,WSW,6.9,-,N/A,,Overcast,240,2013-10-06 05:53:00
1:53 AM,46.9,36.0,66,29.76,10.0,SW,8.1,-,N/A,,Overcast,230,2013-10-06 06:53:00
2:53 AM,45.0,35.1,68,29.75,10.0,West,12.7,-,N/A,,Overcast,270,2013-10-06 07:53:00
3:44 AM,44.6,35.6,71,29.75,10.0,West,10.4,-,N/A,,Overcast,270,2013-10-06 08:44:00
3:53 AM,44.1,36.0,73,29.74,10.0,West,8.1,-,N/A,,Overcast,270,2013-10-06 08:53:00
4:28 AM,44.6,35.6,71,29.74,10.0,WSW,6.9,-,N/A,,Overcast,250,2013-10-06 09:28:00
4:53 AM,44.1,37.0,76,29.74,10.0,West,5.8,-,N/A,,Overcast,260,2013-10-06 09:53:00
5:53 AM,43.0,37.0,80,29.74,10.0,West,6.9,-,N/A,,Overcast,270,2013-10-06 10:53:00
6:25 AM,42.8,37.4,81,29.75,10.0,West,6.9,-,N/A,,Overcast,270,2013-10-06 11:25:00
6:45 AM,42.8,37.4,81,29.75,10.0,West,5.8,-,N/A,,Overcast,280,2013-10-06 11:45:00
6:53 AM,43.0,37.9,82,29.76,10.0,West,5.8,-,N/A,,Overcast,270,2013-10-06 11:53:00
7:02 AM,42.8,37.4,81,29.76,10.0,West,6.9,-,N/A,,Overcast,260,2013-10-06 12:02:00
7:27 AM,41.0,39.2,93,29.77,3.0,WNW,6.9,-,0.00,Rain,Light Rain,290,2013-10-06 12:27:00
7:53 AM,42.1,39.9,92,29.78,10.0,West,3.5,-,0.00,,Overcast,270,2013-10-06 12:53:00
8:30 AM,42.8,41.0,93,29.76,10.0,WSW,5.8,-,N/A,,Overcast,240,2013-10-06 13:30:00
8:53 AM,43.0,41.0,93,29.76,10.0,West,5.8,-,N/A,,Overcast,260,2013-10-06 13:53:00
9:06 AM,42.8,39.2,87,29.75,10.0,Calm,Calm,-,N/A,,Mostly Cloudy,0,2013-10-06 14:06:00
9:28 AM,44.6,41.0,87,29.76,10.0,WNW,6.9,-,N/A,,Mostly Cloudy,290,2013-10-06 14:28:00
9:36 AM,44.6,41.0,87,29.76,10.0,WNW,10.4,-,N/A,,Overcast,300,2013-10-06 14:36:00
9:53 AM,45.0,39.9,82,29.76,10.0,WNW,10.4,-,N/A,,Overcast,290,2013-10-06 14:53:00
10:53 AM,46.0,39.9,79,29.78,10.0,West,10.4,-,N/A,,Overcast,270,2013-10-06 15:53:00
11:53 AM,46.9,39.9,77,29.78,10.0,West,5.8,-,N/A,,Overcast,270,2013-10-06 16:53:00
12:06 PM,46.4,39.2,76,29.77,10.0,West,6.9,-,N/A,,Overcast,280,2013-10-06 17:06:00
12:24 PM,46.4,39.2,76,29.77,10.0,West,8.1,-,N/A,,Overcast,270,2013-10-06 17:24:00
12:41 PM,48.2,39.2,71,29.77,10.0,WNW,6.9,-,N/A,,Overcast,290,2013-10-06 17:41:00
12:53 PM,48.0,39.9,74,29.77,10.0,West,8.1,-,N/A,,Overcast,270,2013-10-06 17:53:00
1:53 PM,48.0,42.1,80,29.76,10.0,West,8.1,-,N/A,,Overcast,270,2013-10-06 18:53:00
2:04 PM,48.2,42.8,82,29.75,10.0,West,9.2,-,0.02,Rain,Light Rain,270,2013-10-06 19:04:00
2:53 PM,48.0,45.0,89,29.75,9.0,WSW,6.9,-,0.03,Rain,Light Rain,250,2013-10-06 19:53:00
3:53 PM,48.9,46.9,93,29.75,10.0,WSW,6.9,-,0.03,,Overcast,240,2013-10-06 20:53:00
4:53 PM,48.0,46.0,93,29.78,4.0,WNW,3.5,-,0.02,Rain,Light Rain,290,2013-10-06 21:53:00
5:36 PM,48.2,46.4,93,29.79,8.0,WNW,8.1,-,0.01,Rain,Light Rain,300,2013-10-06 22:36:00
5:53 PM,48.0,46.0,93,29.80,2.5,NW,6.9,-,0.03,Rain,Rain,310,2013-10-06 22:53:00
6:00 PM,46.4,46.4,100,29.80,2.5,WNW,6.9,-,0.02,Rain,Light Rain,300,2013-10-06 23:00:00
6:07 PM,46.4,46.4,100,29.80,4.0,NW,5.8,-,0.02,Rain,Light Rain,310,2013-10-06 23:07:00
6:16 PM,46.4,44.6,93,29.80,6.0,WNW,5.8,-,0.02,Rain,Light Rain,300,2013-10-06 23:16:00
6:53 PM,46.9,46.0,97,29.83,5.0,NW,4.6,-,0.02,,Overcast,310,2013-10-06 23:53:00
7:12 PM,46.4,46.4,100,29.83,2.0,WNW,3.5,-,0.01,,Overcast,300,2013-10-07 00:12:00
7:21 PM,46.4,46.4,100,29.83,2.0,NW,4.6,-,0.02,Rain,Light Rain,310,2013-10-07 00:21:00
7:36 PM,46.4,46.4,100,29.84,3.0,WNW,4.6,-,0.02,Rain,Light Rain,290,2013-10-07 00:36:00
7:46 PM,46.4,46.4,100,29.84,2.0,WNW,6.9,-,0.03,,Overcast,290,2013-10-07 00:46:00
7:53 PM,48.0,46.9,96,29.85,2.5,NW,9.2,-,0.03,,Overcast,310,2013-10-07 00:53:00
7:57 PM,48.2,46.4,93,29.84,3.0,NW,6.9,-,N/A,,Overcast,310,2013-10-07 00:57:00
8:41 PM,48.2,46.4,93,29.86,10.0,NW,13.8,20.7,N/A,,Overcast,320,2013-10-07 01:41:00
8:53 PM,48.9,46.0,90,29.87,10.0,NW,11.5,-,N/A,,Overcast,320,2013-10-07 01:53:00
9:53 PM,48.9,46.0,90,29.88,10.0,NW,8.1,17.3,N/A,,Overcast,320,2013-10-07 02:53:00
10:53 PM,48.9,46.0,90,29.89,10.0,NW,10.4,-,N/A,,Overcast,320,2013-10-07 03:53:00
11:08 PM,48.2,46.4,93,29.89,10.0,NW,11.5,-,N/A,,Overcast,320,2013-10-07 04:08:00
11:53 PM,48.9,46.9,93,29.91,10.0,NW,8.1,-,N/A,,Mostly Cloudy,310,2013-10-07 04:53:00